Location: Berg
(47.2344°N, 9.5296°E)
Time: 16:56:01
(UTC+00:00)

AAUSAT CUBESAT 2 - Pass Details

Date: 01 December 2021
Orbit: 572 x 586 km, 97.5° (Epoch: 16 January)

Event Time Altitude Azimuth Distance (km) Brightness Sun altitude
Rises 03:37:15 0° 26° (NNE) 2,795 ? -31.6°
Reaches altitude 10° 03:39:53 10° 44° (NE) 1,893 ? -31.1°
Maximum altitude 03:42:56 20° 92° (E) 1,360 ? -30.6°
Drops below altitude 10° 03:45:58 10° 140° (SE) 1,887 ? -30.1°
Sets 03:48:35 0° 158° (SSE) 2,783 ? -29.6°
